Flag for Thailand Weather past 2 weeks in Hat Yai, Thailand

Now
82 °F

Light rain. Broken clouds.


Feels Like: 92 °F
Forecast: 76 / 89 °F
Wind: 12 mph from South

Location: Hat Yai Airport

Current Time: Aug 30, 2015 at 4:56:33 PM

Latest Report: Aug 30, 2015 at 4:30 PM


Visibility: N/A

Pressure: 29.80 "Hg

Humidity: 89%

Dew point: 79 °F

Location of Hat YaiLocation

Historic Weather in Hat Yai — Graph

°F

Hat Yai temperature yesterday

Maximum temperature yesterday: 95 °F (at 2:00 PM)
Minimum temperature yesterday: 73 °F (at 5:00 AM)
Average temperature yesterday: 81 °F

Past Weeks' High & Low Weather Summary

 TemperatureHumidityPressure
High95 °F (Aug 29, 2:00 PM)100% (Aug 16, 1:30 AM)29.92 "Hg (Aug 16, 1:30 AM)
Low73 °F (Aug 17, 2:00 AM)49% (Aug 29, 1:00 PM)29.71 "Hg (Aug 29, 3:30 PM)
Average81 °F84%29.83 "Hg
* Reported Aug 15 3:00 PM — Aug 30 3:30 PM, Hat Yai, Weather by CustomWeather, © 2015

Note: Actual official high and low records may vary slightly from our data, if they occured in-between our weather recording intervals... More about our weather records

Advertising

Hat Yai weather history for previous 24 hours

 ConditionsComfort  
Time TempWeatherWind HumidityBarometerVisibility
3:30 PM
Sun, Aug 30
88 °FBroken clouds.7 mph70%29.77 "HgN/A
3:00 PM84 °FBroken clouds.13 mph79%29.80 "HgN/A
2:30 PM88 °FBroken clouds.9 mph70%29.80 "HgN/A
2:00 PM82 °FLight rain. Broken clouds.12 mph84%29.83 "HgN/A
1:30 PM90 °FBroken clouds.8 mph63%29.83 "HgN/A
1:00 PM90 °FPartly sunny.10 mph67%29.83 "HgN/A
12:30 PM90 °FBroken clouds.5 mph71%29.86 "HgN/A
12:00 PM88 °FBroken clouds.7 mph70%29.86 "HgN/A
11:30 AM86 °FPartly sunny.2 mph79%29.86 "Hg6 mi
10:30 AM84 °FPartly sunny.2 mph79%29.89 "Hg5 mi
10:00 AM82 °FPartly sunny.2 mph89%29.89 "Hg5 mi
9:30 AM81 °FPartly sunny.2 mph89%29.89 "Hg5 mi
9:00 AM79 °FPartly sunny.3 mph94%29.89 "Hg5 mi
8:30 AM77 °FPartly sunny.2 mph94%29.89 "Hg4 mi
8:00 AM77 °FFog.No wind94%29.89 "Hg3 mi
7:30 AM75 °FFog.3 mph100%29.86 "Hg1 mi
7:00 AM75 °FFog.3 mph100%29.86 "Hg1 mi
6:30 AM75 °FFog.2 mph100%29.86 "Hg3 mi
6:00 AM75 °FPartly cloudy.No wind100%29.83 "Hg4 mi
5:30 AM75 °FPartly cloudy.No wind94%29.83 "Hg4 mi
5:00 AM75 °FPartly cloudy.3 mph100%29.83 "Hg4 mi
4:30 AM75 °FFog.6 mph100%29.83 "Hg3 mi
4:00 AM75 °FThunderstorms. Partly cloudy.2 mph100%29.83 "Hg4 mi
3:30 AM75 °FThunderstorms. Partly cloudy.3 mph100%29.83 "Hg4 mi
3:00 AM75 °FThunderstorms. Partly cloudy.No wind100%29.86 "Hg4 mi
2:30 AM75 °FThunderstorms. Partly cloudy.5 mph100%29.86 "Hg3 mi
2:00 AM77 °FThunderstorms. Partly cloudy.3 mph94%29.86 "Hg4 mi
1:30 AM79 °FThunderstorms. Partly cloudy.5 mph94%29.86 "Hg4 mi
1:00 AM79 °FThunderstorms. Partly cloudy.2 mph94%29.86 "Hg4 mi
12:30 AM79 °FPassing clouds.2 mph94%29.86 "Hg4 mi
12:00 AM79 °FPassing clouds.No wind94%29.86 "Hg4 mi
11:30 PM
Sat, Aug 29
79 °FPassing clouds.2 mph94%29.89 "Hg5 mi
11:00 PM79 °FPassing clouds.2 mph94%29.86 "Hg5 mi
10:30 PM79 °FPassing clouds.No wind94%29.86 "HgN/A
10:00 PM79 °FPassing clouds.No wind94%29.86 "HgN/A
9:30 PM79 °FPassing clouds.3 mph94%29.86 "HgN/A
9:00 PM81 °FPassing clouds.2 mph89%29.83 "HgN/A
8:30 PM81 °FPassing clouds.3 mph89%29.83 "Hg6 mi
8:00 PM79 °FPassing clouds.No wind94%29.83 "Hg6 mi
7:30 PM79 °FPassing clouds.3 mph94%29.80 "Hg6 mi
7:00 PM79 °FPassing clouds.3 mph94%29.80 "Hg6 mi
6:30 PM81 °FPassing clouds.8 mph89%29.77 "HgN/A
6:00 PM81 °FPartly sunny.6 mph89%29.77 "HgN/A
5:00 PM81 °FLight rain. Broken clouds.6 mph89%29.74 "HgN/A
4:30 PM84 °FThunderstorms. Broken clouds.9 mph74%29.71 "HgN/A
4:00 PM84 °FThunderstorms. Broken clouds.9 mph74%29.71 "HgN/A
Weather by CustomWeather, © 2015

See weather overviewHow to use our weather pages